Date String (YYYY-MM-DD hh:mm:ss) UTC,Instrument flags,Ambient pressure (hPa),Sample flow (lpm),Bypass flow (lpm),Sample temperature (°C),Ambient temperature (°C),ASC tube jacket temperature (°C),LED temperature (°C),Box temperature (°C),Sample RH (%),Span deviation,Mass concentration (μg/m³),Mass concentration (μg/m³),Mass concentration (μg/m³)
DateTimeUTC,F1_M11,P_M11,Q1_M11,Q2_M11,T1_M11,T2_M11,T3_M11,T4_M11,T5_M11,U1_M11,ZSPAN_M11,X0_M11,X2_M11,X1_M11
2022-03-12 16:00:00,,0826.3,5.00,0.00,22.3,21.7,00.0,31.3,24.1,10.0,0000.0,0003.00,0001.22,0000.78
2022-03-12 16:01:00,,0826.2,5.00,0.00,22.3,21.7,00.0,31.3,24.1,10.2,0000.0,0002.86,0001.27,0000.80
2022-03-12 16:02:00,,0826.2,5.00,0.00,22.4,21.7,00.0,31.3,24.1,10.3,0000.0,0003.00,0001.33,0000.82
2022-03-12 16:03:00,,0826.1,5.01,0.00,22.4,21.7,00.0,31.3,24.1,09.7,0000.0,0003.11,0001.37,0000.84
2022-03-12 16:04:00,,0826.2,4.99,0.00,22.4,21.7,00.0,31.3,24.1,09.7,0000.0,0003.19,0001.40,0000.84
2022-03-12 16:05:00,,0826.3,5.01,0.00,22.4,21.7,00.0,31.3,24.1,10.0,0000.0,0003.20,0001.41,0000.85
2022-03-12 16:06:00,,0826.3,4.99,0.00,22.4,21.7,00.0,31.3,24.2,09.7,0000.0,0003.23,0001.43,0000.86
2022-03-12 16:07:00,,0826.3,5.00,0.00,22.4,21.7,00.0,31.3,24.1,09.6,0000.0,0003.19,0001.43,0000.87
2022-03-12 16:08:00,,0826.4,5.00,0.00,22.4,21.8,00.0,31.3,24.2,10.1,0000.0,0002.70,0001.45,0000.89
2022-03-12 16:09:00,,0826.5,5.01,0.00,22.4,21.8,00.0,31.3,24.2,10.7,0000.0,0002.75,0001.52,0000.93
2022-03-12 16:10:00,,0826.5,5.00,0.00,22.5,21.8,00.0,31.4,24.3,10.8,0000.0,0002.98,0001.63,0000.97
2022-03-12 16:11:00,,0826.4,4.99,0.00,22.5,21.9,00.0,31.4,24.3,10.8,0000.0,0003.18,0001.69,0001.00
2022-03-12 16:12:00,,0826.3,5.01,0.00,22.5,21.9,00.0,31.4,24.3,10.2,0000.0,0003.33,0001.69,0001.01
2022-03-12 16:13:00,,0826.4,5.00,0.00,22.6,21.9,00.0,31.4,24.3,10.3,0000.0,0003.52,0001.67,0001.02
2022-03-12 16:14:00,,0826.4,5.00,0.00,22.6,21.9,00.0,31.4,24.4,10.2,0000.0,0003.65,0001.69,0001.03
2022-03-12 16:15:00,,0826.5,4.99,0.00,22.6,22.0,00.0,31.4,24.4,10.5,0000.0,0003.79,0001.72,0001.06
2022-03-12 16:16:00,,0826.5,5.00,0.00,22.6,22.0,00.0,31.4,24.4,10.6,0000.0,0004.21,0001.76,0001.07
2022-03-12 16:17:00,,0826.5,5.01,0.00,22.6,22.0,00.0,31.5,24.4,10.5,0000.0,0004.40,0001.84,0001.08
2022-03-12 16:18:00,,0826.5,5.00,0.00,22.6,22.0,00.0,31.5,24.5,10.4,0000.0,0004.56,0001.88,0001.10
2022-03-12 16:19:00,,0826.5,4.99,0.00,22.7,22.1,00.0,31.5,24.5,09.8,0000.0,0004.56,0001.88,0001.11
2022-03-12 16:20:00,,0826.5,4.99,0.00,22.7,22.1,00.0,31.5,24.5,09.9,0000.0,0004.40,0001.86,0001.11
2022-03-12 16:21:00,,0826.5,5.02,0.00,22.7,22.1,00.0,31.5,24.6,09.8,0000.0,0004.24,0001.81,0001.10
2022-03-12 16:22:00,,0826.5,4.99,0.00,22.7,22.1,00.0,31.5,24.6,10.0,0000.0,0004.06,0001.75,0001.09
2022-03-12 16:23:00,,0826.5,5.01,0.00,22.8,22.2,00.0,31.6,24.6,09.9,0000.0,0003.94,0001.78,0001.10
2022-03-12 16:24:00,,0826.5,4.99,0.00,22.8,22.2,00.0,31.6,24.6,10.2,0000.0,0003.76,0001.79,0001.09
2022-03-12 16:25:00,,0826.4,5.00,0.00,22.8,22.2,00.0,31.6,24.6,10.4,0000.0,0003.65,0001.76,0001.09
2022-03-12 16:26:00,,0826.4,5.00,0.00,22.8,22.2,00.0,31.6,24.6,10.3,0000.0,0003.55,0001.76,0001.08
2022-03-12 16:27:00,,0826.4,4.99,0.00,22.8,22.2,00.0,31.6,24.7,10.6,0000.0,0003.05,0001.71,0001.07
2022-03-12 16:28:00,,0826.4,5.01,0.00,22.9,22.2,00.0,31.7,24.7,10.6,0000.0,0002.90,0001.65,0001.07
2022-03-12 16:29:00,,0826.4,5.00,0.00,22.9,22.3,00.0,31.7,24.7,10.8,0000.0,0002.86,0001.62,0001.06
2022-03-12 16:30:00,,0826.3,4.99,0.00,22.9,22.3,00.0,31.7,24.8,10.3,0000.0,0002.77,0001.58,0001.03
2022-03-12 16:31:00,,0826.3,4.99,0.00,22.9,22.2,00.0,31.7,24.7,10.2,0000.0,0002.58,0001.49,0000.99
2022-03-12 16:32:00,,0826.3,5.01,0.00,22.9,22.2,00.0,31.7,24.8,10.1,0000.0,0002.93,0001.45,0000.94
2022-03-12 16:33:00,,0826.3,4.99,0.00,22.9,22.2,00.0,31.7,24.8,10.3,0000.0,0003.42,0001.44,0000.90
2022-03-12 16:34:00,,0826.3,5.02,0.00,22.9,22.2,00.0,31.8,24.8,10.0,0000.0,0003.30,0001.37,0000.86
2022-03-12 16:35:00,,0826.4,4.98,0.00,22.9,22.2,00.0,31.8,24.8,09.9,0000.0,0003.10,0001.28,0000.83
2022-03-12 16:36:00,,0826.4,5.02,0.00,23.0,22.2,00.0,31.8,24.8,10.3,0000.0,0002.91,0001.22,0000.79
2022-03-12 16:37:00,,0826.5,4.99,0.00,23.0,22.2,00.0,31.8,24.8,10.1,0000.0,0002.75,0001.14,0000.76
2022-03-12 16:38:00,,0826.3,5.01,0.00,23.0,22.2,00.0,31.8,24.8,10.4,0000.0,0002.71,0001.11,0000.73
2022-03-12 16:39:00,,0826.3,5.00,0.00,23.0,22.2,00.0,31.8,24.8,10.9,0000.0,0002.69,0001.09,0000.71
2022-03-12 16:40:00,,0826.3,4.99,0.00,23.0,22.2,00.0,31.8,24.8,10.8,0000.0,0002.57,0001.06,0000.68
2022-03-12 16:41:00,,0826.3,4.99,0.00,23.0,22.2,00.0,31.8,24.7,10.8,0000.0,0002.51,0001.02,0000.66
2022-03-12 16:42:00,,0826.2,5.00,0.00,23.0,22.2,00.0,31.8,24.7,10.7,0000.0,0002.51,0001.01,0000.66
2022-03-12 16:43:00,,0826.3,5.00,0.00,23.0,22.2,00.0,31.9,24.8,10.4,0000.0,0002.05,0000.99,0000.66
2022-03-12 16:44:00,,0826.3,5.02,0.00,23.0,22.2,00.0,31.9,24.8,11.1,0000.0,0001.80,0000.99,0000.66
2022-03-12 16:45:00,,0826.2,4.99,0.00,23.0,22.2,00.0,31.9,24.7,11.2,0000.0,0001.72,0000.96,0000.66
2022-03-12 16:46:00,,0826.3,5.01,0.00,23.0,22.2,00.0,31.9,24.8,10.0,0000.0,0001.68,0000.96,0000.66
2022-03-12 16:47:00,,0826.2,5.00,0.00,23.0,22.3,00.0,31.9,24.8,10.7,0000.0,0001.71,0000.97,0000.66
2022-03-12 16:48:00,,0826.2,5.00,0.00,23.0,22.3,00.0,31.9,24.9,10.4,0000.0,0001.81,0001.01,0000.68
2022-03-12 16:49:00,,0826.2,5.00,0.00,23.1,22.3,00.0,31.9,24.9,10.2,0000.0,0001.91,0001.04,0000.69
2022-03-12 16:50:00,,0826.3,5.01,0.00,23.1,22.4,00.0,31.9,24.9,10.2,0000.0,0001.88,0001.02,0000.68
2022-03-12 16:51:00,,0826.3,5.00,0.00,23.1,22.4,00.0,32.0,25.0,10.6,0000.0,0001.82,0001.00,0000.68
2022-03-12 16:52:00,,0826.3,5.00,0.00,23.1,22.4,00.0,32.0,24.9,11.4,0000.0,0001.86,0001.01,0000.68
2022-03-12 16:53:00,,0826.3,4.99,0.00,23.2,22.4,00.0,32.0,25.0,11.9,0000.0,0001.99,0001.04,0000.67
2022-03-12 16:54:00,,0826.4,5.00,0.00,23.2,22.5,00.0,32.0,25.0,11.1,0000.0,0002.24,0001.04,0000.67
2022-03-12 16:55:00,,0826.5,5.00,0.00,23.2,22.5,00.0,32.0,25.0,10.3,0000.0,0002.10,0001.05,0000.66
2022-03-12 16:56:00,,0826.5,5.00,0.00,23.2,22.5,00.0,32.0,25.0,10.2,0000.0,0002.12,0001.05,0000.66
2022-03-12 16:57:00,,0826.5,4.99,0.00,23.2,22.5,00.0,32.1,25.1,10.3,0000.0,0002.12,0001.04,0000.67
2022-03-12 16:58:00,,0826.5,5.01,0.00,23.2,22.5,00.0,32.1,25.0,10.4,0000.0,0002.30,0001.10,0000.67
2022-03-12 16:59:00,,0826.3,4.99,0.00,23.3,22.5,00.0,32.1,25.0,10.8,0000.0,0002.31,0001.11,0000.66
